| time (UTC) | temp F | wind direction | speed MPH | gust MPH | rain 1hr in | rain 24hr in | rain mn in | humidity % | barometer mb |
| 20260507064233 | 56 | 311 | 2.0 | 3.0 | 0.00 | 0.03 | 0.00 | 95 | 1007.9 |
| 20260507063217 | 57 | 113 | 1.0 | 2.0 | 0.00 | 0.03 | 0.00 | 95 | 1007.9 |
| 20260507062220 | 57 | 0.0 | 0.0 | 0.00 | 0.03 | 0.00 | 95 | 1007.9 | |
| 20260507061222 | 57 | 0.0 | 0.0 | 0.00 | 0.03 | 0.00 | 95 | 1007.8 | |
| 20260507060224 | 57 | 23 | 2.0 | 2.0 | 0.00 | 0.03 | 0.00 | 95 | 1007.8 |
| 20260507055227 | 57 | 203 | 1.0 | 2.0 | 0.00 | 0.03 | 0.00 | 96 | 1008.0 |
| 20260507054230 | 57 | 238 | 2.0 | 2.0 | 0.00 | 0.03 | 0.00 | 99 | 1008.2 |
| 20260507053227 | 57 | 0.0 | 0.0 | 0.00 | 0.03 | 0.00 | 99 | 1008.4 | |
| 20260507052217 | 57 | 0.0 | 0.0 | 0.00 | 0.03 | 0.00 | 99 | 1008.4 | |
| 20260507051239 | 57 | 203 | 0.0 | 1.0 | 0.00 | 0.03 | 0.00 | 99 | 1008.5 |
| 20260507050216 | 57 | 203 | 2.0 | 3.0 | 0.00 | 0.03 | 0.00 | 99 | 1008.6 |
| 20260507045224 | 57 | 113 | 3.0 | 5.0 | 0.00 | 0.03 | 0.00 | 99 | 1008.5 |
| 20260507044246 | 57 | 0.0 | 0.0 | 0.00 | 0.03 | 0.00 | 99 | 1008.6 | |
| 20260507043228 | 57 | 113 | 1.0 | 1.0 | 0.00 | 0.03 | 0.00 | 99 | 1008.7 |
| 20260507042231 | 57 | 352 | 4.0 | 5.0 | 0.00 | 0.03 | 0.00 | 99 | 1008.7 |
| 20260507041216 | 57 | 0.0 | 0.0 | 0.00 | 0.03 | 0.00 | 99 | 1008.3 | |
| 20260507040220 | 57 | 217 | 2.0 | 3.0 | 0.00 | 0.03 | 0.00 | 99 | 1008.3 |
| 20260507035221 | 57 | 113 | 3.0 | 3.0 | 0.00 | 0.03 | 0.03 | 99 | 1008.4 |
| 20260507034223 | 57 | 203 | 2.0 | 3.0 | 0.00 | 0.03 | 0.03 | 99 | 1008.4 |
| 20260507033226 | 57 | 225 | 3.0 | 3.0 | 0.00 | 0.03 | 0.03 | 99 | 1008.6 |
| 20260507032230 | 0 | 228 | 4.0 | 4.0 | 0.00 | 0.03 | 0.03 | 1008.6 | |
| 20260507031231 | 57 | 248 | 5.0 | 5.0 | 0.00 | 0.03 | 0.03 | 99 | 1008.8 |
| 20260507030215 | 56 | 203 | 5.0 | 6.0 | 0.00 | 0.03 | 0.03 | 99 | 1008.5 |
| 20260507025218 | 56 | 237 | 3.0 | 4.0 | 0.00 | 0.03 | 0.03 | 99 | 1008.5 |
| 20260507024241 | 56 | 113 | 6.0 | 9.0 | 0.00 | 0.03 | 0.03 | 99 | 1008.5 |
| 20260507023223 | 56 | 45 | 7.0 | 9.0 | 0.00 | 0.03 | 0.03 | 99 | 1008.7 |
| 20260507022220 | 56 | 270 | 5.0 | 6.0 | 0.00 | 0.03 | 0.03 | 99 | 1008.7 |
| 20260507021216 | 56 | 180 | 2.0 | 3.0 | 0.00 | 0.03 | 0.03 | 99 | 1008.8 |
| 20260507020312 | 56 | 214 | 4.0 | 5.0 | 0.00 | 0.03 | 0.03 | 99 | 1008.5 |
| 20260507015235 | 56 | 167 | 3.0 | 4.0 | 0.00 | 0.03 | 0.03 | 99 | 1008.7 |
| 20260507014217 | 56 | 318 | 4.0 | 5.0 | 0.00 | 0.03 | 0.03 | 99 | 1008.7 |
| 20260507013221 | 56 | 113 | 3.0 | 4.0 | 0.00 | 0.03 | 0.03 | 99 | 1008.8 |
| 20260507012223 | 56 | 4.0 | 7.0 | 0.00 | 0.03 | 0.03 | 99 | 1008.8 | |
| 20260507011225 | 56 | 225 | 6.0 | 7.0 | 0.00 | 0.03 | 0.03 | 99 | 1009.1 |
| 20260507010228 | 56 | 158 | 4.0 | 5.0 | 0.00 | 0.03 | 0.03 | 99 | 1009.2 |
| 20260507005229 | 56 | 163 | 5.0 | 8.0 | 0.00 | 0.03 | 0.03 | 99 | 1009.2 |
| 20260507004232 | 56 | 194 | 5.0 | 5.0 | 0.00 | 0.03 | 0.03 | 99 | 1009.1 |
| 20260507003216 | 56 | 299 | 6.0 | 8.0 | 0.00 | 0.03 | 0.03 | 99 | 1008.9 |
| 20260507002219 | 56 | 193 | 6.0 | 7.0 | 0.00 | 0.03 | 0.03 | 99 | 1008.9 |
| 20260507001221 | 56 | 120 | 5.0 | 7.0 | 0.00 | 0.03 | 0.03 | 99 | 1008.9 |
| 20260507000224 | 56 | 8.0 | 10.0 | 0.00 | 0.03 | 0.03 | 99 | 1008.9 | |
| 20260506235226 | 56 | 45 | 7.0 | 8.0 | 0.01 | 0.03 | 0.03 | 99 | 1009.0 |
| 20260506234223 | 0 | 0.0 | 0.0 | 0.01 | 0.03 | 0.03 | 1008.9 | ||
| 20260506233240 | 0 | 0.0 | 0.0 | 0.01 | 0.03 | 0.03 | 1008.9 | ||
| 20260506232215 | 0 | 0.0 | 0.0 | 0.01 | 0.03 | 0.03 | 1008.9 | ||
| 20260506231217 | 0 | 0.0 | 0.0 | 0.01 | 0.03 | 0.03 | 1008.9 | ||
| 20260506230220 | 56 | 225 | 7.0 | 10.0 | 0.01 | 0.03 | 0.03 | 99 | 1008.9 |
| 20260506225223 | 0 | 0.0 | 0.0 | 0.00 | 0.02 | 0.02 | 1008.9 | ||
| 20260506224225 | 57 | 146 | 4.0 | 5.0 | 0.00 | 0.02 | 0.02 | 98 | 1008.9 |
| 20260506223227 | 57 | 248 | 5.0 | 6.0 | 0.00 | 0.02 | 0.02 | 98 | 1008.8 |
| 20260506222229 | 57 | 270 | 7.0 | 7.0 | 0.00 | 0.02 | 0.02 | 98 | 1008.8 |
| 20260506221232 | 57 | 200 | 6.0 | 6.0 | 0.01 | 0.02 | 0.02 | 98 | 1008.8 |
| 20260506220216 | 57 | 158 | 6.0 | 6.0 | 0.01 | 0.02 | 0.02 | 98 | 1008.9 |
| 20260506215219 | 0 | 264 | 6.0 | 7.0 | 0.01 | 0.02 | 0.02 | 1009.3 | |
| 20260506214302 | 0 | 171 | 6.0 | 10.0 | 0.01 | 0.02 | 0.02 | 1009.4 | |
| 20260506213224 | 57 | 270 | 5.0 | 6.0 | 0.01 | 0.02 | 0.02 | 97 | 1009.4 |
| 20260506212309 | 58 | 203 | 6.0 | 7.0 | 0.01 | 0.02 | 0.02 | 96 | 1009.4 |
| 20260506211229 | 58 | 8.0 | 8.0 | 0.00 | 0.01 | 0.01 | 95 | 1009.6 | |
| 20260506210246 | 58 | 248 | 7.0 | 8.0 | 0.00 | 0.01 | 0.01 | 94 | 1009.5 |
| 20260506205216 | 58 | 200 | 7.0 | 11.0 | 0.00 | 0.01 | 0.01 | 94 | 1009.6 |
| 20260506204220 | 59 | 113 | 7.0 | 11.0 | 0.00 | 0.01 | 0.01 | 94 | 1009.7 |
| 20260506203216 | 59 | 113 | 6.0 | 7.0 | 0.00 | 0.01 | 0.01 | 94 | 1009.8 |
| 20260506202224 | 59 | 238 | 7.0 | 8.0 | 0.01 | 0.01 | 0.01 | 95 | 1009.8 |
| 20260506201226 | 59 | 171 | 8.0 | 9.0 | 0.01 | 0.01 | 0.01 | 94 | 1010.0 |
| 20260506200229 | 59 | 179 | 9.0 | 9.0 | 0.01 | 0.01 | 0.01 | 93 | 1010.0 |
| 20260506195233 | 59 | 169 | 10.0 | 15.0 | 0.01 | 0.01 | 0.01 | 92 | 1010.1 |
| 20260506194216 | 60 | 248 | 6.0 | 6.0 | 0.01 | 0.01 | 0.01 | 93 | 1010.1 |
| 20260506193218 | 60 | 115 | 8.0 | 10.0 | 0.01 | 0.01 | 0.01 | 93 | 1010.3 |
| 20260506192221 | 60 | 158 | 5.0 | 6.0 | 0.00 | 0.00 | 0.00 | 91 | 1010.3 |
| 20260506191224 | 61 | 348 | 6.0 | 7.0 | 0.00 | 0.00 | 0.00 | 88 | 1010.3 |
| 20260506190227 | 61 | 193 | 7.0 | 8.0 | 0.00 | 0.00 | 0.00 | 85 | 1010.4 |
| 20260506185231 | 62 | 113 | 5.0 | 6.0 | 0.00 | 0.00 | 0.00 | 83 | 1010.6 |
| 20260506184231 | 63 | 315 | 8.0 | 9.0 | 0.00 | 0.00 | 0.00 | 78 | 1010.7 |
| 20260506183236 | 63 | 128 | 12.0 | 15.0 | 0.00 | 0.00 | 0.00 | 77 | 1010.8 |
| 20260506182218 | 63 | 50 | 12.0 | 17.0 | 0.00 | 0.00 | 0.00 | 76 | 1010.8 |
| 20260506181242 | 64 | 113 | 12.0 | 13.0 | 0.00 | 0.00 | 0.00 | 74 | 1011.2 |
| 20260506180222 | 65 | 113 | 14.0 | 16.0 | 0.00 | 0.00 | 0.00 | 74 | 1010.8 |
| 20260506175219 | 66 | 163 | 5.0 | 7.0 | 0.00 | 0.00 | 0.00 | 72 | 1011.2 |
| 20260506174215 | 66 | 158 | 7.0 | 8.0 | 0.00 | 0.00 | 0.00 | 72 | 1011.4 |
| 20260506173230 | 67 | 206 | 10.0 | 11.0 | 0.00 | 0.00 | 0.00 | 70 | 1011.7 |
| 20260506172232 | 68 | 315 | 9.0 | 13.0 | 0.00 | 0.00 | 0.00 | 69 | 1011.7 |
| 20260506171259 | 68 | 59 | 14.0 | 16.0 | 0.00 | 0.00 | 0.00 | 68 | 1011.4 |
| 20260506170219 | 69 | 90 | 13.0 | 14.0 | 0.00 | 0.00 | 0.00 | 67 | |
| 20260506165221 | 68 | 159 | 9.0 | 10.0 | 0.00 | 0.00 | 0.00 | 67 | 1011.7 |
| 20260506164225 | 68 | 277 | 11.0 | 14.0 | 0.00 | 0.00 | 0.00 | 68 | 1011.8 |
| 20260506163226 | 70 | 42 | 9.0 | 10.0 | 0.00 | 0.00 | 0.00 | 66 | 1011.9 |
| 20260506162229 | 68 | 124 | 7.0 | 9.0 | 0.00 | 0.00 | 0.00 | 68 | 1011.9 |
| 20260506161231 | 68 | 221 | 9.0 | 15.0 | 0.00 | 0.00 | 0.00 | 68 | 1012.2 |
| 20260506160215 | 68 | 171 | 7.0 | 11.0 | 0.00 | 0.00 | 0.00 | 67 | 1012.3 |
| 20260506155218 | 70 | 185 | 9.0 | 11.0 | 0.00 | 0.00 | 0.00 | 64 | 1012.3 |
| 20260506154220 | 71 | 243 | 11.0 | 13.0 | 0.00 | 0.00 | 0.00 | 64 | 1012.2 |
| 20260506153224 | 71 | 80 | 10.0 | 12.0 | 0.00 | 0.00 | 0.00 | 63 | 1012.4 |
| 20260506152226 | 71 | 168 | 12.0 | 16.0 | 0.00 | 0.00 | 0.00 | 64 | 1012.4 |
| 20260506151222 | 70 | 230 | 10.0 | 11.0 | 0.00 | 0.00 | 0.00 | 66 | 1012.5 |
| 20260506150219 | 69 | 248 | 8.0 | 10.0 | 0.00 | 0.00 | 0.00 | 67 | 1012.7 |
| 20260506145215 | 69 | 13.0 | 14.0 | 0.00 | 0.00 | 0.00 | 67 | 1012.5 | |
| 20260506144218 | 69 | 209 | 8.0 | 11.0 | 0.00 | 0.00 | 0.00 | 68 | 1012.3 |
| 20260506143220 | 0 | 200 | 8.0 | 8.0 | 0.00 | 0.00 | 0.00 | 1012.5 | |
| 20260506142224 | 69 | 10.0 | 11.0 | 0.00 | 0.00 | 0.00 | 68 | 1012.5 | |
| 20260506141224 | 68 | 135 | 10.0 | 12.0 | 0.00 | 0.00 | 0.00 | 68 | 1012.7 |
| 20260506140227 | 68 | 225 | 7.0 | 10.0 | 0.00 | 0.00 | 0.00 | 70 | 1012.4 |
| 20260506135230 | 67 | 248 | 7.0 | 8.0 | 0.00 | 0.00 | 0.00 | 71 | 1012.5 |
| 20260506134232 | 67 | 174 | 7.0 | 8.0 | 0.00 | 0.00 | 0.00 | 71 | 1012.7 |
| 20260506133217 | 67 | 158 | 7.0 | 10.0 | 0.00 | 0.00 | 0.00 | 71 | 1012.9 |
| 20260506132219 | 66 | 113 | 10.0 | 12.0 | 0.00 | 0.00 | 0.00 | 73 | 1012.9 |
| 20260506131223 | 65 | 191 | 6.0 | 6.0 | 0.00 | 0.00 | 0.00 | 74 | 1012.9 |
| 20260506130224 | 65 | 320 | 10.0 | 13.0 | 0.00 | 0.00 | 0.00 | 76 | 1012.9 |
| 20260506125228 | 64 | 246 | 8.0 | 9.0 | 0.00 | 0.00 | 0.00 | 77 | 1012.9 |
| 20260506124229 | 63 | 203 | 6.0 | 8.0 | 0.00 | 0.00 | 0.00 | 79 | 1012.9 |
| 20260506123226 | 62 | 300 | 8.0 | 9.0 | 0.00 | 0.00 | 0.00 | 80 | 1012.9 |
| 20260506122215 | 62 | 180 | 6.0 | 7.0 | 0.00 | 0.00 | 0.00 | 82 | 1012.9 |
| 20260506121218 | 61 | 97 | 7.0 | 9.0 | 0.00 | 0.00 | 0.00 | 84 | 1012.9 |
| 20260506120220 | 60 | 68 | 4.0 | 5.0 | 0.00 | 0.00 | 0.00 | 87 | 1013.2 |
| 20260506115223 | 59 | 68 | 5.0 | 6.0 | 0.00 | 0.00 | 0.00 | 89 | 1013.2 |
| 20260506114225 | 59 | 194 | 8.0 | 11.0 | 0.00 | 0.00 | 0.00 | 89 | 1013.4 |
| 20260506113228 | 59 | 204 | 5.0 | 6.0 | 0.00 | 0.00 | 0.00 | 89 | 1013.2 |
| 20260506112231 | 59 | 293 | 8.0 | 9.0 | 0.00 | 0.00 | 0.00 | 89 | 1013.2 |
| 20260506111232 | 58 | 28 | 6.0 | 8.0 | 0.00 | 0.00 | 0.00 | 92 | 1013.4 |
| 20260506110217 | 57 | 90 | 6.0 | 8.0 | 0.00 | 0.00 | 0.00 | 93 | 1013.2 |
| 20260506105219 | 57 | 2 | 5.0 | 7.0 | 0.00 | 0.00 | 0.00 | 93 | 1013.2 |
| 20260506104222 | 57 | 68 | 6.0 | 10.0 | 0.00 | 0.00 | 0.00 | 93 | 1012.9 |
| 20260506103225 | 57 | 158 | 9.0 | 10.0 | 0.00 | 0.00 | 0.00 | 94 | 1013.0 |
| 20260506102227 | 0 | 358 | 3.0 | 3.0 | 0.00 | 0.00 | 0.00 | 1013.0 | |
| 20260506101250 | 56 | 248 | 5.0 | 6.0 | 0.00 | 0.00 | 0.00 | 94 | 1012.9 |
| 20260506100232 | 56 | 131 | 5.0 | 6.0 | 0.00 | 0.00 | 0.00 | 94 | 1012.9 |
| 20260506095217 | 56 | 195 | 6.0 | 9.0 | 0.00 | 0.00 | 0.00 | 94 | 1012.9 |
| 20260506094226 | 56 | 225 | 3.0 | 3.0 | 0.00 | 0.00 | 0.00 | 93 | 1012.7 |
| 20260506093224 | 0 | 71 | 7.0 | 7.0 | 0.00 | 0.00 | 0.00 | 1012.9 | |
| 20260506092219 | 57 | 68 | 5.0 | 5.0 | 0.00 | 0.00 | 0.00 | 92 | 1012.9 |
| 20260506091216 | 0 | 102 | 5.0 | 6.0 | 0.00 | 0.00 | 0.00 | 1012.9 | |
| 20260506090219 | 57 | 36 | 5.0 | 5.0 | 0.00 | 0.00 | 0.00 | 92 | 1013.0 |
| 20260506085221 | 57 | 180 | 6.0 | 7.0 | 0.00 | 0.00 | 0.00 | 91 | 1013.2 |
| 20260506084224 | 57 | 192 | 8.0 | 9.0 | 0.00 | 0.00 | 0.00 | 91 | 1013.2 |
| 20260506083226 | 57 | 146 | 6.0 | 9.0 | 0.00 | 0.00 | 0.00 | 90 | 1013.2 |
| 20260506082230 | 57 | 135 | 10.0 | 13.0 | 0.00 | 0.00 | 0.00 | 90 | 1013.2 |
| 20260506081252 | 58 | 167 | 6.0 | 7.0 | 0.00 | 0.00 | 0.00 | 90 | 1013.2 |
| 20260506080216 | 58 | 180 | 8.0 | 11.0 | 0.00 | 0.00 | 0.00 | 89 | 1013.2 |
| 20260506073223 | 58 | 203 | 5.0 | 8.0 | 0.00 | 0.00 | 0.00 | 88 | 1013.2 |
| 20260506072226 | 58 | 90 | 6.0 | 8.0 | 0.00 | 0.00 | 0.00 | 88 | 1013.2 |
| 20260506071228 | 0 | 115 | 6.0 | 6.0 | 0.00 | 0.00 | 0.00 | 1013.0 | |
| 20260506070251 | 58 | 183 | 8.0 | 10.0 | 0.00 | 0.00 | 0.00 | 87 | 1012.9 |